Location: *
(43.0409°N, 0.1694°E)
Time: 12:00:22
(UTC+00:00)

Cosmos 2298 Rocket - Pass Details

Date: 03 October 2023
Orbit: 774 x 783 km, 74.0° (Epoch: 02 December)

Event Time Altitude Azimuth Distance (km) Brightness Sun altitude
Exits shadow 03:37:02 60° 169° (S) 887 4.1 -26.2°
Maximum altitude 03:37:56 75° 108° (ESE) 805 4.1 -26.1°
Drops below altitude 10° 03:43:12 10° 24° (NNE) 2,330 7.0 -25.1°
Sets 03:45:36 0° 22° (NNE) 3,261 7.8 -24.7°
